DW2227 Weather Reports


Display with metric or nautical units.
time (UTC)temp
F
wind
direction
speed
MPH
gust
MPH
rain 1hr
in
rain 24hr
in
rain mn
in
humidity
%
barometer
mb
20260903212352 94 279 0.0 1.0 0.00 0.00 0.00 61 1012.6
20260903211826 95 279 0.0 1.0 0.00 0.00 0.00 62 1012.5
20260903211340 95 279 0.0 1.0 0.00 0.00 0.00 62 1012.5
20260903210835 95 279 0.0 1.0 0.00 0.00 0.00 60 1012.6
20260903210330 95 279 0.0 2.0 0.00 0.00 0.00 59 1012.5
20260903205843 95 279 0.0 2.0 0.00 0.00 0.00 59 1012.5
20260903205333 95 105 0.0 1.0 0.00 0.00 0.00 62 1012.5
20260903204828 95 119 0.0 1.0 0.00 0.00 0.00 60 1012.5
20260903204323 95 119 0.0 1.0 0.00 0.00 0.00 60 1012.4
20260903203817 95 119 0.0 1.0 0.00 0.00 0.00 58 1012.5
20260903203331 96 119 0.0 1.0 0.00 0.00 0.00 59 1012.5
20260903202825 96 119 0.0 2.0 0.00 0.00 0.00 56 1012.6
20260903202319 97 115 0.0 2.0 0.00 0.00 0.00 57 1012.6
20260903201834 96 303 0.0 2.0 0.00 0.00 0.00 56 1012.6
20260903201329 96 73 0.0 2.0 0.00 0.00 0.00 58 1012.5
20260903200823 96 236 0.0 1.0 0.00 0.00 0.00 58 1012.6
20260903200319 97 236 0.0 1.0 0.00 0.00 0.00 58 1012.6
20260903195832 97 236 0.0 2.0 0.00 0.00 0.00 56 1012.6
20260903195328 97 236 0.0 2.0 0.00 0.00 0.00 55 1012.6
20260903194823 97 236 0.0 1.0 0.00 0.00 0.00 57 1012.7
20260903194318 97 236 0.0 1.0 0.00 0.00 0.00 54 1012.7
20260903193832 97 236 0.0 1.0 0.00 0.00 0.00 57 1012.8
20260903193328 97 236 0.0 2.0 0.00 0.00 0.00 56 1012.8
20260903192822 97 236 0.0 2.0 0.00 0.00 0.00 59 1012.8
20260903192329 96 236 0.0 2.0 0.00 0.00 0.00 58 1012.7
20260903191822 96 236 0.0 2.0 0.00 0.00 0.00 58 1012.8
20260903191317 95 236 0.0 2.0 0.00 0.00 0.00 57 1012.8
20260903190832 95 124 0.0 2.0 0.00 0.00 0.00 62 1012.8
20260903190328 95 124 0.0 2.0 0.00 0.00 0.00 58 1012.8
20260903185824 94 124 0.0 2.0 0.00 0.00 0.00 59 1012.9
20260903185338 94 80 0.0 1.0 0.00 0.00 0.00 59 1013.0
20260903184829 95 304 0.0 1.0 0.00 0.00 0.00 58 1013.0
20260903184321 95 304 0.0 1.0 0.00 0.00 0.00 58 1012.9
20260903183836 94 304 0.0 1.0 0.00 0.00 0.00 62 1013.0
20260903183327 93 304 0.0 3.0 0.00 0.00 0.00 59 1013.1
20260903182822 94 304 0.0 3.0 0.00 0.00 0.00 57 1013.2
20260903182353 94 153 0.0 2.0 0.00 0.00 0.00 56 1013.2
20260903181827 94 153 0.0 2.0 0.00 0.00 0.00 61 1013.4
20260903181323 94 153 0.0 1.0 0.00 0.00 0.00 62 1013.3
20260903180906 94 153 0.0 3.0 0.00 0.00 0.00 59 1013.3
20260903180330 94 153 0.0 3.0 0.00 0.00 0.00 55 1013.3
20260903175843 94 194 0.0 2.0 0.00 0.00 0.00 54 1013.5
20260903175332 94 160 0.0 1.0 0.00 0.00 0.00 56 1013.6
20260903174825 94 192 0.0 2.0 0.00 0.00 0.00 59 1013.6
20260903174321 94 109 0.0 2.0 0.00 0.00 0.00 58 1013.5
20260903173816 93 171 1.0 2.0 0.00 0.00 0.00 57 1013.6
20260903173331 93 200 0.0 1.0 0.00 0.00 0.00 60 1013.8
20260903172848 93 200 0.0 1.0 0.00 0.00 0.00 58 1013.8
20260903172321 93 200 0.0 1.0 0.00 0.00 0.00 59 1013.8
20260903171817 92 200 0.0 1.0 0.00 0.00 0.00 61 1013.8
20260903171332 92 209 0.0 2.0 0.00 0.00 0.00 59 1013.8
20260903170828 92 339 0.0 2.0 0.00 0.00 0.00 60 1013.8
20260903170322 92 192 0.0 2.0 0.00 0.00 0.00 59 1013.9
20260903165833 92 343 0.0 2.0 0.00 0.00 0.00 59 1013.9
20260903165328 92 241 0.0 2.0 0.00 0.00 0.00 61 1014.0
20260903164823 91 239 0.0 1.0 0.00 0.00 0.00 64 1014.0
20260903164317 90 335 0.0 2.0 0.00 0.00 0.00 62 1014.0
20260903163829 90 334 0.0 3.0 0.00 0.00 0.00 66 1014.0
20260903163324 90 286 0.0 2.0 0.00 0.00 0.00 62 1014.0
20260903162818 90 319 0.0 4.0 0.00 0.00 0.00 63 1014.1
20260903162330 90 355 2.0 5.0 0.00 0.00 0.00 64 1014.1
20260903161823 89 237 1.0 5.0 0.00 0.00 0.00 64 1014.2
20260903161339 89 331 0.0 5.0 0.00 0.00 0.00 69 1014.2
20260903160834 89 5 1.0 3.0 0.00 0.00 0.00 64 1014.1
20260903160328 89 304 0.0 3.0 0.00 0.00 0.00 66 1014.2
20260903155823 89 226 1.0 3.0 0.00 0.00 0.00 66 1014.2
20260903155317 89 232 0.0 2.0 0.00 0.00 0.00 68 1014.2
20260903154831 88 298 1.0 2.0 0.00 0.00 0.00 69 1014.1
20260903154326 88 238 0.0 2.0 0.00 0.00 0.00 71 1014.1
20260903153822 87 238 1.0 2.0 0.00 0.00 0.00 69 1014.1
20260903153317 87 325 1.0 2.0 0.00 0.00 0.00 70 1014.0
20260903152832 87 242 0.0 4.0 0.00 0.00 0.00 71 1014.2
20260903152347 87 303 0.0 3.0 0.00 0.00 0.00 69 1013.9
20260903151818 87 180 0.0 5.0 0.00 0.00 0.00 71 1014.0
20260903151335 87 217 1.0 5.0 0.00 0.00 0.00 71 1014.3
20260903150829 87 346 1.0 3.0 0.00 0.00 0.00 69 1013.9
20260903150325 86 206 0.0 3.0 0.00 0.00 0.00 71 1013.8
20260903145819 86 5 0.0 2.0 0.00 0.00 0.00 72 1013.8
20260903145332 86 233 0.0 3.0 0.00 0.00 0.00 71 1013.7
20260903144847 85 212 1.0 3.0 0.00 0.00 0.00 72 1013.7
20260903144341 85 355 0.0 3.0 0.00 0.00 0.00 72 1013.6
20260903143835 85 168 0.0 3.0 0.00 0.00 0.00 74 1013.5
20260903143329 84 262 0.0 3.0 0.00 0.00 0.00 72 1013.7
20260903142823 84 68 0.0 2.0 0.00 0.00 0.00 75 1013.7
20260903142317 84 290 0.0 3.0 0.00 0.00 0.00 74 1013.7
20260903141831 83 313 0.0 4.0 0.00 0.00 0.00 75 1013.8
20260903141327 83 254 1.0 4.0 0.00 0.00 0.00 75 1013.7
20260903140822 82 104 1.0 6.0 0.00 0.00 0.00 75 1013.5
20260903140331 82 280 1.0 6.0 0.00 0.00 0.00 77 1013.6
20260903135824 81 26 0.0 2.0 0.00 0.00 0.00 78 1013.5
20260903135319 81 302 0.0 2.0 0.00 0.00 0.00 79 1013.5
20260903134832 80 184 1.0 6.0 0.00 0.00 0.00 80 1013.5
20260903134326 80 158 0.0 6.0 0.00 0.00 0.00 81 1013.7
20260903133820 80 46 0.0 3.0 0.00 0.00 0.00 81 1013.6
20260903133334 79 263 0.0 2.0 0.00 0.00 0.00 83 1013.7
20260903132826 79 222 0.0 0.0 0.00 0.00 0.00 84 1013.6
20260903132318 78 230 0.0 1.0 0.00 0.00 0.00 84 1013.6
20260903131832 78 230 0.0 1.0 0.00 0.00 0.00 85 1013.5
20260903131327 78 230 0.0 1.0 0.00 0.00 0.00 86 1013.7
20260903130819 78 230 0.0 1.0 0.00 0.00 0.00 85 1013.7
20260903130334 77 216 0.0 2.0 0.00 0.00 0.00 84 1013.4
20260903125830 77 216 0.0 2.0 0.00 0.00 0.00 85 1013.5
20260903125325 77 285 0.0 0.0 0.00 0.00 0.00 86 1013.5
20260903124820 76 53 0.0 0.0 0.00 0.00 0.00 87 1013.5
20260903124333 76 53 0.0 0.0 0.00 0.00 0.00 86 1013.5
20260903123829 76 53 0.0 0.0 0.00 0.00 0.00 87 1013.5
20260903123324 76 53 0.0 0.0 0.00 0.00 0.00 87 1013.4
20260903122818 76 71 0.0 0.0 0.00 0.00 0.00 87 1013.5
20260903122334 76 71 0.0 0.0 0.00 0.00 0.00 87 1013.5
20260903121828 76 71 0.0 0.0 0.00 0.00 0.00 87 1013.4
20260903121343 76 71 0.0 0.0 0.00 0.00 0.00 87 1013.4
20260903120817 75 71 0.0 0.0 0.00 0.00 0.00 87 1013.4
20260903120331 75 71 0.0 0.0 0.00 0.00 0.00 87 1013.4
20260903115845 75 71 0.0 0.0 0.00 0.00 0.00 87 1013.4
20260903115339 75 71 0.0 0.0 0.00 0.00 0.00 87 1013.3
20260903114831 75 71 0.0 0.0 0.00 0.00 0.00 87 1013.3
20260903114325 75 71 0.0 0.0 0.00 0.00 0.00 87 1013.2
20260903113819 75 71 0.0 0.0 0.00 0.00 0.00 87 1013.2
20260903113351 75 70 0.0 0.0 0.00 0.00 0.00 87 1013.1
20260903112844 75 70 0.0 0.0 0.00 0.00 0.00 87 1013.0
20260903112318 75 70 0.0 0.0 0.00 0.00 0.00 87 1013.0
20260903111834 76 70 0.0 0.0 0.00 0.00 0.00 87 1013.0
20260903111329 76 70 0.0 0.0 0.00 0.00 0.00 87 1012.9
20260903110822 76 70 0.0 0.0 0.00 0.00 0.00 87 1012.9
20260903110317 76 70 0.0 0.0 0.00 0.00 0.00 86 1012.9
20260903105851 76 70 0.0 0.0 0.00 0.00 0.00 87 1012.9
20260903105324 76 70 0.0 0.0 0.00 0.00 0.00 86 1012.9
20260903104831 76 70 0.0 0.0 0.00 0.00 0.00 86 1012.8
20260903104326 76 70 0.0 0.0 0.00 0.00 0.00 86 1012.9
20260903103842 76 70 0.0 0.0 0.00 0.00 0.00 86 1012.9
20260903103331 76 70 0.0 0.0 0.00 0.00 0.00 86 1012.8
20260903102842 76 70 0.0 0.0 0.00 0.00 0.00 85 1012.8
20260903102331 76 70 0.0 0.0 0.00 0.00 0.00 86 1012.7
20260903101845 76 70 0.0 0.0 0.00 0.00 0.00 86 1012.8
20260903101319 76 70 0.0 0.0 0.00 0.00 0.00 86 1012.8
20260903100835 76 70 0.0 0.0 0.00 0.00 0.00 86 1012.8
20260903100328 76 70 0.0 0.0 0.00 0.00 0.00 86 1012.8
20260903095822 76 70 0.0 0.0 0.00 0.00 0.00 86 1012.9
20260903095318 76 70 0.0 0.0 0.00 0.00 0.00 86 1012.9
20260903094853 76 70 0.0 0.0 0.00 0.00 0.00 86 1013.0
20260903094326 76 70 0.0 0.0 0.00 0.00 0.00 86 1013.1
20260903093821 76 86 0.0 0.0 0.00 0.00 0.00 86 1013.0
20260903093352 76 86 0.0 0.0 0.00 0.00 0.00 86 1013.0
20260903092826 76 86 0.0 0.0 0.00 0.00 0.00 86 1012.9
20260903092321 76 86 0.0 0.0 0.00 0.00 0.00 86 1013.0
20260903091836 76 86 0.0 0.0 0.00 0.00 0.00 86 1013.0
20260903091351 76 86 0.0 0.0 0.00 0.00 0.00 86 1012.9
20260903090825 77 86 0.0 0.0 0.00 0.00 0.00 86 1013.0
20260903090317 76 86 0.0 0.0 0.00 0.00 0.00 86 1012.9
20260903085853 76 86 0.0 0.0 0.00 0.00 0.00 86 1012.9
20260903085327 76 86 0.0 0.0 0.00 0.00 0.00 86 1012.9
20260903084822 76 86 0.0 0.0 0.00 0.00 0.00 87 1012.9
20260903084355 76 86 0.0 0.0 0.00 0.00 0.00 87 1012.9
20260903083827 76 86 0.0 0.0 0.00 0.00 0.00 87 1012.9
20260903083341 76 86 0.0 0.0 0.00 0.00 0.00 87 1012.8
20260903082835 76 86 0.0 0.0 0.00 0.00 0.00 87 1012.8
20260903082328 76 86 0.0 0.0 0.00 0.00 0.00 87 1012.8
20260903081822 76 86 0.0 0.0 0.00 0.00 0.00 87 1012.7
20260903081356 76 86 0.0 0.0 0.00 0.00 0.00 87 1012.8
20260903080829 76 86 0.0 0.0 0.00 0.00 0.00 87 1012.8
20260903080343 76 86 0.0 0.0 0.00 0.00 0.00 87 1012.8
20260903075832 77 86 0.0 0.0 0.00 0.00 0.00 87 1012.8
20260903075326 77 86 0.0 0.0 0.00 0.00 0.00 87 1012.8
20260903074822 77 86 0.0 0.0 0.00 0.00 0.00 87 1012.8
20260903074355 77 86 0.0 0.0 0.00 0.00 0.00 87 1012.8
20260903073827 77 86 0.0 0.0 0.00 0.00 0.00 86 1012.9
20260903073322 77 86 0.0 0.0 0.00 0.00 0.00 86 1012.8
20260903072816 77 86 0.0 0.0 0.00 0.00 0.00 86 1012.8
20260903072331 77 86 0.0 0.0 0.00 0.00 0.00 86 1012.8
20260903071824 77 86 0.0 0.0 0.00 0.00 0.00 86 1012.8
20260903071318 77 86 0.0 0.0 0.00 0.00 0.00 86 1012.8
20260903070831 77 86 0.0 0.0 0.00 0.00 0.00 86 1012.9
20260903070327 77 86 0.0 0.0 0.00 0.00 0.00 86 1012.8
20260903065821 77 86 0.0 0.0 0.00 0.00 0.00 86 1012.9
20260903065317 78 86 0.0 0.0 0.00 0.00 0.00 86 1013.0
20260903064853 78 86 0.0 0.0 0.00 0.00 0.00 86 1012.9
20260903064327 78 86 0.0 0.0 0.00 0.00 0.00 85 1012.9
20260903063824 78 86 0.0 0.0 0.00 0.00 0.00 85 1012.9
20260903063318 78 86 0.0 0.0 0.00 0.00 0.00 85 1012.9
20260903062833 78 86 0.0 0.0 0.00 0.00 0.00 85 1012.9
20260903062329 78 86 0.0 0.0 0.00 0.00 0.00 85 1012.9
20260903061825 78 86 0.0 0.0 0.00 0.00 0.00 85 1012.9
20260903061317 78 86 0.0 0.0 0.00 0.00 0.00 85 1012.9
20260903060831 78 86 0.0 0.0 0.00 0.00 0.00 85 1012.9
20260903060345 78 86 0.0 0.0 0.00 0.00 0.00 85 1012.9
20260903055819 78 86 0.0 0.0 0.00 0.00 0.00 85 1013.0
20260903055335 78 86 0.0 0.0 0.00 0.00 0.00 86 1012.9
20260903054827 78 86 0.0 0.0 0.00 0.00 0.00 86 1012.9
20260903054322 78 86 0.0 0.0 0.00 0.00 0.00 86 1013.0
20260903053818 78 86 0.0 0.0 0.00 0.00 0.00 86 1013.0
20260903053334 78 86 0.0 0.0 0.00 0.00 0.00 86 1013.0
20260903052828 78 86 0.0 0.0 0.00 0.00 0.00 86 1013.0
20260903052322 78 86 0.0 0.0 0.00 0.00 0.00 86 1013.0
20260903051817 79 86 0.0 0.0 0.00 0.00 0.00 86 1013.0
20260903051350 79 86 0.0 0.0 0.00 0.00 0.00 85 1013.0
20260903050824 79 86 0.0 0.0 0.00 0.00 0.00 86 1013.0
20260903050320 79 86 0.0 0.0 0.00 0.00 0.00 85 1013.0
20260903045849 79 86 0.0 0.0 0.00 0.00 0.00 85 1013.0
20260903045345 79 86 0.0 0.0 0.00 0.00 0.00 85 1012.9
20260903044820 79 86 0.0 0.0 0.00 0.00 0.00 85 1012.8
20260903044334 79 86 0.0 0.0 0.00 0.00 0.00 86 1012.9
20260903043848 79 86 0.0 0.0 0.00 0.00 0.00 86 1012.9
20260903043323 79 86 0.0 0.0 0.00 0.00 0.00 86 1012.9
20260903042819 79 86 0.0 0.0 0.00 0.00 0.00 86 1012.8
20260903042335 79 86 0.0 0.0 0.00 0.00 0.00 86 1012.8
20260903041830 79 86 0.0 0.0 0.00 0.00 0.00 86 1012.8
20260903041327 79 86 0.0 0.0 0.00 0.00 0.00 86 1012.9
20260903040822 80 86 0.0 0.0 0.00 0.00 0.00 86 1012.8
20260903040317 80 86 0.0 0.0 0.00 0.00 0.00 86 1012.8
20260903035832 80 86 0.0 0.0 0.00 0.00 0.00 86 1012.8
20260903035327 80 86 0.0 0.0 0.00 0.00 0.00 86 1012.8
20260903034843 80 86 0.0 0.0 0.00 0.00 0.00 85 1012.8
20260903034328 80 86 0.0 0.0 0.00 0.00 0.00 85 1012.8
20260903033824 80 86 0.0 0.0 0.00 0.00 0.00 85 1012.8
20260903033319 80 86 0.0 0.0 0.00 0.00 0.00 85 1012.8
20260903032834 80 86 0.0 0.0 0.00 0.00 0.00 85 1012.8
20260903032329 80 86 0.0 0.0 0.00 0.00 0.00 85 1012.8
20260903031824 80 86 0.0 0.0 0.00 0.00 0.00 85 1012.9
20260903031339 81 86 0.0 0.0 0.00 0.00 0.00 85 1012.8
20260903030833 81 86 0.0 0.0 0.00 0.00 0.00 85 1012.8
20260903030328 81 86 0.0 0.0 0.00 0.00 0.00 85 1012.8
20260903025824 81 86 0.0 0.0 0.00 0.00 0.00 85 1012.8
20260903025334 81 86 0.0 0.0 0.00 0.00 0.00 85 1012.8
20260903024824 81 86 0.0 0.0 0.00 0.00 0.00 85 1012.6
20260903024340 81 86 0.0 0.0 0.00 0.00 0.00 85 1012.6
20260903023832 81 86 0.0 0.0 0.00 0.00 0.00 85 1012.6
20260903023326 81 86 0.0 0.0 0.00 0.00 0.00 85 1012.6
20260903022822 81 86 0.0 0.0 0.00 0.00 0.00 85 1012.6
20260903022318 81 86 0.0 0.0 0.00 0.00 0.00 85 1012.5
20260903021832 81 86 0.0 0.0 0.00 0.00 0.00 85 1012.6
20260903021326 81 86 0.0 0.0 0.00 0.00 0.00 85 1012.6
20260903020820 82 86 0.0 0.0 0.00 0.00 0.00 84 1012.7
20260903020316 82 86 0.0 0.0 0.00 0.00 0.00 84 1012.5
20260903015831 82 86 0.0 0.0 0.00 0.00 0.00 84 1012.6
20260903015326 82 86 0.0 0.0 0.00 0.00 0.00 84 1012.6
20260903014820 82 86 0.0 0.0 0.00 0.00 0.00 84 1012.5
20260903014317 83 86 0.0 0.0 0.00 0.00 0.00 83 1012.5
20260903013832 83 86 0.0 0.0 0.00 0.00 0.00 83 1012.5
20260903013327 83 86 0.0 0.0 0.00 0.00 0.00 83 1012.4
20260903012824 83 86 0.0 0.0 0.00 0.00 0.00 82 1012.3
20260903012317 84 86 0.0 0.0 0.00 0.00 0.00 82 1012.2
20260903011832 84 86 0.0 0.0 0.00 0.00 0.00 82 1012.3
20260903011327 84 86 0.0 0.0 0.00 0.00 0.00 81 1012.3
20260903010842 85 86 0.0 0.0 0.00 0.00 0.00 81 1012.3
20260903010334 85 86 0.0 0.0 0.00 0.00 0.00 80 1012.3
20260903005828 85 86 0.0 0.0 0.00 0.00 0.00 80 1012.2
20260903005323 85 86 0.0 0.0 0.00 0.00 0.00 79 1012.3
20260903004818 86 86 0.0 0.0 0.00 0.00 0.00 79 1012.3
20260903004333 86 86 0.0 0.0 0.00 0.00 0.00 78 1012.3
20260903003829 86 86 0.0 0.0 0.00 0.00 0.00 78 1012.3
20260903003322 87 86 0.0 0.0 0.00 0.00 0.00 77 1012.3
20260903002833 87 86 0.0 0.0 0.00 0.00 0.00 77 1012.3
20260903002327 87 86 0.0 0.0 0.00 0.00 0.00 77 1012.2
20260903001823 88 86 0.0 0.0 0.00 0.00 0.00 76 1012.3
20260903001338 88 86 0.0 0.0 0.00 0.00 0.00 76 1012.3
20260903000829 88 86 0.0 0.0 0.00 0.00 0.00 75 1012.3
20260903000325 88 86 0.0 0.0 0.00 0.00 0.00 75 1012.3
20260902235817 89 86 0.0 0.0 0.00 0.00 0.00 75 1012.3
20260902235329 89 86 0.0 0.0 0.00 0.00 0.00 74 1012.3
20260902234843 89 86 0.0 0.0 0.00 0.00 0.00 74 1012.2
20260902234331 89 86 0.0 0.0 0.00 0.00 0.00 73 1012.3
20260902233823 90 86 0.0 0.0 0.00 0.00 0.00 73 1012.3
20260902233317 90 86 0.0 0.0 0.00 0.00 0.00 72 1012.4
20260902232831 90 86 0.0 0.0 0.00 0.00 0.00 71 1012.4
20260902232326 90 86 0.0 0.0 0.00 0.00 0.00 70 1012.4
20260902231840 90 86 0.0 0.0 0.00 0.00 0.00 69 1012.6
20260902231333 90 86 0.0 0.0 0.00 0.00 0.00 69 1012.4
20260902230827 91 86 0.0 0.0 0.00 0.00 0.00 68 1012.5
20260902230322 91 86 0.0 0.0 0.00 0.00 0.00 67 1012.5
20260902225816 91 86 0.0 0.0 0.00 0.00 0.00 67 1012.4
20260902225332 91 86 0.0 1.0 0.00 0.00 0.00 66 1012.5
20260902224826 91 86 0.0 2.0 0.00 0.00 0.00 65 1012.5
20260902224321 92 72 0.0 2.0 0.00 0.00 0.00 64 1012.5
20260902223835 92 127 0.0 2.0 0.00 0.00 0.00 64 1012.5
20260902223348 92 5 0.0 2.0 0.00 0.00 0.00 63 1012.6
20260902222822 92 240 0.0 2.0 0.00 0.00 0.00 63 1012.6
20260902222317 93 153 0.0 2.0 0.00 0.00 0.00 62 1012.5
20260902221831 93 55 0.0 2.0 0.00 0.00 0.00 62 1012.6
20260902221327 93 117 0.0 2.0 0.00 0.00 0.00 61 1012.6
20260902220823 93 157 0.0 2.0 0.00 0.00 0.00 60 1012.6
20260902220337 94 86 0.0 1.0 0.00 0.00 0.00 61 1012.7
20260902215832 94 38 0.0 1.0 0.00 0.00 0.00 61 1012.7
20260902215325 94 16 0.0 1.0 0.00 0.00 0.00 60 1012.7
20260902214820 95 331 0.0 1.0 0.00 0.00 0.00 61 1012.7
20260902214316 95 295 0.0 4.0 0.00 0.00 0.00 58 1012.8
20260902213832 95 65 1.0 4.0 0.00 0.00 0.00 57 1012.8
20260902213347 95 36 0.0 3.0 0.00 0.00 0.00 58 1012.8
20260902212822 95 233 0.0 2.0 0.00 0.00 0.00 57 1012.8